Location: Asheville, NC
(35.6000°N, 82.5500°W)
Time: 17:16:27
(UTC-05:00)

FALCONSAT 3 - Visible Passes

Search period start: 21 January 2018 00:00
Search period end: 31 January 2018 00:00
Orbit: 463 x 466 km, 35.4° (Epoch: 20 January)

Date Brightness Start Highest point End Pass type
(mag) Time Alt. Az. Time Alt. Az. Time Alt. Az.
21 Jan ? 04:52:41 12° E 04:52:41 12° E 04:53:01 10° E visible
21 Jan ? 06:26:31 26° W 06:28:26 90° SSW 06:32:07 10° E visible
22 Jan ? 05:54:01 84° W 05:54:07 90° SSW 05:57:47 10° E visible
23 Jan ? 05:21:29 30° E 05:21:29 30° E 05:23:28 10° E visible
23 Jan ? 06:55:18 11° W 06:58:49 61° SSW 07:02:26 10° ESE visible
24 Jan ? 04:48:56 11° E 04:48:56 11° E 04:49:07 10° E visible
24 Jan ? 06:22:46 28° W 06:24:29 64° SSW 06:28:07 10° ESE visible
25 Jan ? 05:50:13 67° S 05:50:13 67° S 05:53:48 10° ESE visible
26 Jan ? 05:17:42 26° ESE 05:17:42 26° ESE 05:19:28 10° ESE visible
26 Jan ? 06:51:34 10° W 06:54:36 24° SSW 06:57:37 10° SSE visible
27 Jan ? 06:19:02 21° WSW 06:20:16 26° SSW 06:23:23 10° SE visible
28 Jan ? 05:46:35 26° S 05:46:35 26° S 05:49:07 10° SE visible
29 Jan ? 05:14:11 14° SE 05:14:11 14° SE 05:14:50 10° SE visible
